Time,TemperatureF,DewpointF,PressureIn,WindDirection,WindDirectionDegrees,WindSpeedMPH,WindSpeedGustMPH,Humidity,HourlyPrecipIn,Conditions,Clouds,dailyrainin,SoftwareType,DateUTC
2016-09-27 00:05:00,50.0,31.0,-100.00,North,-9999,0.0,3.0,48,-99.99,,,-99.99,,2016-09-27 07:05:00,
2016-09-27 00:34:00,49.0,32.0,-100.00,North,-9999,0.0,0.0,51,-99.99,,,-99.99,,2016-09-27 07:34:00,
2016-09-27 00:44:00,47.0,31.0,-100.00,North,-9999,0.0,0.0,54,-99.99,,,-99.99,,2016-09-27 07:44:00,
2016-09-27 00:54:00,47.0,31.0,-100.00,North,-9999,0.0,0.0,54,-99.99,,,-99.99,,2016-09-27 07:54:00,
2016-09-27 01:04:00,48.0,32.0,-100.00,NNW,335,1.0,4.0,52,-99.99,,,-99.99,,2016-09-27 08:04:00,
2016-09-27 01:12:00,48.0,32.0,-100.00,NNW,335,1.0,4.0,52,-99.99,,,-99.99,,2016-09-27 08:12:00,
2016-09-27 01:33:00,46.0,31.0,-100.00,North,-9999,0.0,0.0,55,-99.99,,,-99.99,,2016-09-27 08:33:00,
2016-09-27 01:46:00,46.0,30.0,-100.00,North,-9999,0.0,0.0,54,-99.99,,,-99.99,,2016-09-27 08:46:00,
2016-09-27 01:53:00,46.0,30.0,-100.00,North,-9999,0.0,0.0,54,-99.99,,,-99.99,,2016-09-27 08:53:00,
2016-09-27 02:03:00,49.0,30.0,-100.00,WNW,301,4.0,5.0,49,-99.99,,,-99.99,,2016-09-27 09:03:00,
2016-09-27 02:23:00,47.0,30.0,-100.00,North,-9999,0.0,1.0,52,-99.99,,,-99.99,,2016-09-27 09:23:00,
2016-09-27 02:47:00,45.0,29.0,-100.00,WNW,288,3.0,3.0,53,-99.99,,,-99.99,,2016-09-27 09:47:00,
2016-09-27 02:54:00,45.0,29.0,-100.00,WNW,288,3.0,3.0,53,-99.99,,,-99.99,,2016-09-27 09:54:00,
2016-09-27 03:04:00,47.0,30.0,-100.00,North,-9999,0.0,3.0,51,-99.99,,,-99.99,,2016-09-27 10:04:00,
2016-09-27 03:15:00,47.0,30.0,-100.00,NNW,336,2.0,4.0,51,-99.99,,,-99.99,,2016-09-27 10:15:00,
2016-09-27 04:15:00,46.0,30.0,-100.00,WNW,298,2.0,4.0,54,-99.99,,,-99.99,,2016-09-27 11:15:00,
2016-09-27 04:24:00,46.0,30.0,-100.00,WNW,298,2.0,4.0,54,-99.99,,,-99.99,,2016-09-27 11:24:00,
2016-09-27 04:44:00,43.0,30.0,-100.00,WNW,296,3.0,4.0,58,-99.99,,,-99.99,,2016-09-27 11:44:00,
2016-09-27 04:56:00,44.0,30.0,-100.00,NW,313,2.0,3.0,56,-99.99,,,-99.99,,2016-09-27 11:56:00,
2016-09-27 05:04:00,44.0,30.0,-100.00,NW,313,2.0,3.0,56,-99.99,,,-99.99,,2016-09-27 12:04:00,
2016-09-27 05:13:00,44.0,30.0,-100.00,NW,306,2.0,3.0,56,-99.99,,,-99.99,,2016-09-27 12:13:00,
2016-09-27 05:24:00,44.0,30.0,-100.00,NW,306,2.0,3.0,56,-99.99,,,-99.99,,2016-09-27 12:24:00,
2016-09-27 05:34:00,45.0,30.0,-100.00,NW,308,3.0,5.0,56,-99.99,,,-99.99,,2016-09-27 12:34:00,
2016-09-27 05:44:00,45.0,30.0,-100.00,NW,308,3.0,5.0,56,-99.99,,,-99.99,,2016-09-27 12:44:00,
2016-09-27 05:55:00,44.0,30.0,-100.00,WNW,292,4.0,5.0,59,-99.99,,,-99.99,,2016-09-27 12:55:00,
2016-09-27 06:04:00,44.0,30.0,-100.00,WNW,292,4.0,5.0,59,-99.99,,,-99.99,,2016-09-27 13:04:00,
2016-09-27 06:13:00,42.0,30.0,-100.00,WNW,289,3.0,4.0,61,-99.99,,,-99.99,,2016-09-27 13:13:00,
2016-09-27 06:24:00,42.0,30.0,-100.00,WNW,289,3.0,4.0,61,-99.99,,,-99.99,,2016-09-27 13:24:00,
2016-09-27 06:34:00,42.0,30.0,-100.00,WNW,289,3.0,4.0,61,-99.99,,,-99.99,,2016-09-27 13:34:00,
2016-09-27 07:04:00,43.0,31.0,-100.00,NW,306,2.0,3.0,61,-99.99,,,-99.99,,2016-09-27 14:04:00,
2016-09-27 07:13:00,44.0,31.0,-100.00,WNW,298,3.0,5.0,58,-99.99,,,-99.99,,2016-09-27 14:13:00,
2016-09-27 07:23:00,44.0,31.0,-100.00,WNW,298,3.0,-999.0,58,-99.99,,,-99.99,,2016-09-27 14:23:00,
2016-09-27 07:34:00,44.0,31.0,-100.00,WNW,298,3.0,5.0,58,-99.99,,,-99.99,,2016-09-27 14:34:00,
2016-09-27 07:43:00,44.0,31.0,-100.00,WNW,298,3.0,5.0,58,-99.99,,,-99.99,,2016-09-27 14:43:00,
2016-09-27 08:13:00,51.0,33.0,-100.00,North,-9999,-999.9,-999.0,51,-99.99,,,-99.99,,2016-09-27 15:13:00,
2016-09-27 08:23:00,51.0,33.0,-100.00,North,-9999,-999.9,-999.0,51,-99.99,,,-99.99,,2016-09-27 15:23:00,
2016-09-27 09:31:00,66.0,32.0,-100.00,ESE,102,1.0,3.0,28,-99.99,,,-99.99,,2016-09-27 16:31:00,
2016-09-27 10:04:00,63.0,31.0,-100.00,ESE,102,1.0,3.0,30,-99.99,,,-99.99,,2016-09-27 17:04:00,
2016-09-27 10:13:00,63.0,31.0,-100.00,ESE,102,1.0,3.0,30,-99.99,,,-99.99,,2016-09-27 17:13:00,
2016-09-27 11:00:00,67.0,33.0,-100.00,SSE,160,2.0,-999.0,28,-99.99,,,-99.99,,2016-09-27 18:00:00,
2016-09-27 11:13:00,66.0,34.0,-100.00,SE,145,7.0,-999.0,30,-99.99,,,-99.99,,2016-09-27 18:13:00,
2016-09-27 11:26:00,66.0,34.0,-100.00,SE,145,7.0,11.0,30,-99.99,,,-99.99,,2016-09-27 18:26:00,
2016-09-27 11:33:00,70.0,29.0,-100.00,ENE,76,4.0,8.0,22,-99.99,,,-99.99,,2016-09-27 18:33:00,
2016-09-27 11:34:00,66.0,34.0,-100.00,SE,145,5.0,7.0,30,-99.99,,,-99.99,,2016-09-27 18:34:00,
2016-09-27 11:56:00,68.0,34.0,-100.00,SE,126,3.0,7.0,28,-99.99,,,-99.99,,2016-09-27 18:56:00,
2016-09-27 12:04:00,68.0,34.0,-100.00,SE,126,3.0,7.0,28,-99.99,,,-99.99,,2016-09-27 19:04:00,
2016-09-27 12:13:00,70.0,29.0,-100.00,ENE,76,4.0,8.0,22,-99.99,,,-99.99,,2016-09-27 19:13:00,
2016-09-27 12:23:00,70.0,29.0,-100.00,ENE,76,4.0,8.0,22,-99.99,,,-99.99,,2016-09-27 19:23:00,
2016-09-27 12:47:00,68.0,31.0,-100.00,ENE,58,4.0,9.0,25,-99.99,,,-99.99,,2016-09-27 19:47:00,
2016-09-27 13:04:00,69.0,31.0,-100.00,SE,130,2.0,6.0,23,-99.99,,,-99.99,,2016-09-27 20:04:00,
2016-09-27 13:12:00,69.0,31.0,-100.00,SE,130,2.0,6.0,23,-99.99,,,-99.99,,2016-09-27 20:12:00,
2016-09-27 13:44:00,70.0,28.0,-100.00,East,99,5.0,9.0,21,-99.99,,,-99.99,,2016-09-27 20:44:00,
2016-09-27 14:04:00,72.0,28.0,-100.00,ESE,112,4.0,7.0,20,-99.99,,,-99.99,,2016-09-27 21:04:00,